Wind_Speed
21 20 19 18 17 17 16 15 14 14 14 14 15 15 14 15 16 16 15 14 14 15 17 18 19 20 20 19 18 17 17 17 17 17 18 19 17 16 16 16 16 17
21 20 19 18 18 17 16 14 14 14 14 14 15 15 15 16 17 17 16 14 14 15 17 19 20 20 20 19 18 17 17 17 18 18 19 19 18 17 17 17 17 18
21 20 19 19 18 17 15 14 14 14 14 15 15 14 15 16 17 17 16 14 13 15 17 19 20 20 19 18 17 16 17 18 18 19 20 20 18 18 18 17 18 19
21 20 19 19 18 16 15 14 14 14 15 15 14 14 15 15 16 16 14 13 13 15 16 18 19 19 19 17 16 17 17 17 18 20 21 20 19 19 18 18 19 20
21 19 19 19 18 16 15 14 14 14 15 15 13 13 14 15 15 14 13 13 13 14 15 17 18 19 19 17 17 17 17 18 19 21 21 21 20 20 20 20 20 21
21 20 19 19 18 16 15 15 14 15 15 14 13 13 14 14 14 14 13 12 13 14 15 17 18 19 19 18 17 17 18 18 19 21 21 21 21 21 21 21 21 22
21 20 19 19 17 16 16 15 15 15 15 14 13 13 13 14 14 14 14 13 13 15 17 18 19 19 19 18 17 17 18 19 20 21 21 22 22 22 23 23 23 23
21 20 19 18 17 17 16 16 15 15 15 14 14 14 14 14 15 15 15 15 16 18 19 20 20 19 18 17 17 17 17 18 19 20 22 22 23 23 24 24 25 26
21 20 19 18 18 17 17 16 16 15 15 15 15 15 15 15 15 15 16 16 17 18 19 19 19 18 17 16 15 15 16 17 19 21 22 23 23 24 25 26 27 28
21 20 19 19 18 17 17 16 16 15 15 15 15 15 16 16 16 16 16 16 16 16 17 17 17 17 16 14 14 15 16 17 19 21 22 23 24 25 26 27 28 29
21 20 19 19 18 17 17 17 16 15 15 16 16 16 16 16 16 16 16 15 15 14 15 16 16 16 15 15 15 15 16 18 20 22 22 23 24 26 27 28 29 31
21 20 19 18 18 17 17 18 16 15 16 17 17 17 17 17 17 16 15 14 13 13 14 15 16 16 16 16 16 16 18 20 22 22 23 24 25 26 27 29 30 32
21 20 19 18 18 17 18 18 17 17 17 17 17 18 18 18 17 16 14 12 12 13 14 15 15 16 16 17 17 18 19 21 23 24 24 25 26 27 28 30 32 33
21 20 19 18 17 17 18 19 18 18 18 17 17 18 19 19 17 15 13 12 12 13 14 15 15 16 17 18 18 20 21 23 24 25 26 27 28 28 29 31 33 35
21 20 18 17 17 17 18 19 20 19 19 17 18 19 20 19 17 15 13 12 12 13 14 15 16 17 18 19 20 21 22 24 26 27 27 28 29 30 32 34 35 36
21 19 18 17 17 18 19 20 20 20 19 18 18 20 20 19 17 15 14 14 14 15 16 17 17 18 19 21 22 23 24 25 27 28 29 30 31 32 34 37 38 39
21 20 19 18 18 18 19 20 20 19 19 18 19 20 20 19 17 16 16 16 16 17 18 19 20 21 22 23 25 25 26 28 29 30 31 31 33 34 37 39 40 41
21 20 20 19 19 20 20 20 19 19 19 19 19 20 20 19 18 18 18 18 19 19 20 21 22 23 24 25 26 27 28 29 30 31 31 32 33 34 37 38 40 41
21 21 21 20 20 20 21 20 19 19 19 20 19 20 20 20 20 20 20 20 21 22 22 23 24 25 25 26 28 28 29 29 30 30 31 31 32 33 35 36 38 40
22 22 21 21 21 21 21 20 19 19 20 20 20 20 21 21 21 21 22 23 23 24 24 25 26 27 27 28 29 29 29 30 30 30 30 31 32 32 33 34 36 39
22 22 22 22 22 22 21 19 19 20 20 21 21 21 21 22 22 23 24 25 26 26 26 27 27 28 29 30 30 30 30 30 31 31 31 31 30 30 31 33 35 36
23 23 23 22 22 21 20 18 19 20 21 21 22 22 23 24 24 25 26 27 28 28 28 28 28 28 30 31 31 31 31 30 30 30 30 30 30 31 32 33 34 35
24 23 23 23 22 21 19 19 19 20 20 21 22 24 25 26 27 27 28 29 30 30 29 29 29 30 31 31 31 31 31 30 29 29 30 31 32 33 34 34 36 37
25 24 24 23 22 21 21 20 20 20 21 22 24 25 27 28 29 29 30 31 31 31 31 31 31 31 31 32 32 31 30 30 30 31 33 34 35 36 36 36 37 38
26 25 24 23 21 21 22 23 22 21 21 23 25 27 28 29 30 30 31 32 32 32 32 32 31 31 31 32 31 30 30 31 33 35 36 37 37 37 37 38 39 39
26 24 23 23 22 21 21 23 24 23 22 24 26 28 28 29 30 31 32 33 33 33 33 32 31 30 31 31 31 31 31 33 36 37 39 39 37 36 36 38 39 40
Wind_Direction
247 252 256 260 261 259 257 258 263 266 270 272 274 276 279 282 284 285 282 275 271 267 262 258 256 256 258 256 255 256 253 248 246 244 245 251 258 264 272 280 288 295
247 251 254 257 257 254 254 257 261 265 267 270 273 277 280 283 284 285 282 275 266 260 259 259 259 258 257 256 256 256 253 249 247 247 248 254 260 266 273 282 289 295
246 250 253 254 253 251 252 254 257 261 266 270 275 281 284 284 284 283 280 272 262 257 259 261 263 261 259 258 259 258 254 251 250 249 251 257 263 268 275 283 290 295
246 249 251 251 249 249 250 251 255 259 264 271 279 285 286 284 282 281 279 271 264 262 263 263 263 261 259 258 260 260 257 253 251 252 256 262 266 270 276 283 289 294
246 248 249 247 246 247 249 251 254 258 264 272 282 287 286 284 283 281 279 274 269 268 268 265 261 258 257 259 262 263 260 255 253 256 261 266 269 272 277 282 287 292
245 247 246 245 245 246 250 252 253 258 265 273 281 285 285 283 282 280 278 275 272 271 269 266 262 259 260 263 265 264 261 257 256 259 265 269 272 274 276 280 285 290
244 246 246 245 245 247 250 252 254 257 264 272 279 283 284 283 280 277 275 273 271 271 270 267 264 263 264 265 264 262 260 257 258 263 268 272 274 275 276 279 283 288
242 245 246 246 247 249 252 252 254 257 262 270 278 282 284 283 281 279 276 273 271 270 269 266 265 265 266 264 260 257 256 258 263 267 271 274 275 275 277 280 283 286
242 244 246 248 249 251 252 253 254 257 263 270 276 281 283 283 284 285 282 277 272 269 267 265 265 265 264 261 256 254 256 262 268 272 275 276 277 279 281 282 283 286
242 244 247 250 251 252 252 253 252 255 263 270 275 279 282 284 287 288 286 280 271 265 263 262 262 262 260 256 253 254 259 267 272 275 279 281 281 282 283 284 285 286
242 245 248 250 252 253 252 252 251 252 260 268 272 276 280 284 287 289 287 279 267 259 256 256 257 256 254 252 252 255 262 269 274 278 281 283 284 284 284 284 285 286
243 246 248 250 253 253 252 251 249 250 258 265 270 275 280 283 286 288 285 273 259 252 250 251 252 252 251 251 253 258 264 270 274 278 282 283 283 283 284 284 284 284
244 246 248 251 254 254 250 248 247 250 256 263 269 274 278 280 282 284 279 265 253 249 249 250 252 252 254 256 258 263 267 271 275 279 282 283 283 284 284 283 283 284
244 246 250 252 255 253 248 245 246 250 255 261 268 273 275 276 278 278 273 261 253 251 252 254 255 256 259 262 265 267 270 273 277 280 282 283 284 285 285 283 283 284
243 246 250 252 253 251 246 244 247 251 256 261 266 270 271 272 273 272 269 261 257 255 256 258 260 262 265 268 268 270 272 275 278 281 283 284 285 287 286 285 285 285
242 245 248 250 251 249 245 245 248 253 257 261 264 266 267 267 267 268 267 264 261 261 262 264 266 268 270 271 271 272 274 276 278 280 283 285 286 287 287 286 287 287
241 244 247 248 249 247 245 245 247 253 258 261 261 262 262 261 262 264 265 265 266 267 268 269 270 271 272 273 273 274 275 277 279 281 284 286 287 287 287 288 288 288
240 244 247 247 246 246 245 245 247 252 258 259 258 258 258 257 258 261 263 265 267 269 270 271 272 273 274 275 276 277 279 281 283 285 287 288 289 290 291 291 289 288
240 244 247 247 245 245 245 245 247 252 255 256 255 255 255 255 256 259 262 264 266 268 270 272 273 275 276 277 278 280 282 284 286 288 290 291 292 293 295 295 291 288
240 244 246 246 246 246 246 245 247 251 254 254 254 254 255 256 258 259 262 264 266 268 270 271 273 275 277 278 279 281 283 285 286 288 289 291 292 294 296 298 294 289
240 243 245 246 247 247 246 245 246 249 252 253 254 256 258 259 261 261 263 264 266 267 269 270 273 275 276 277 278 280 281 283 285 288 289 291 292 293 295 298 298 295
239 241 244 246 247 248 247 245 245 247 251 253 255 258 261 261 262 262 263 265 266 268 270 271 273 274 275 276 278 279 281 283 286 289 291 291 291 293 294 296 298 297
238 241 244 247 248 249 247 244 245 247 251 255 257 259 261 262 262 263 264 265 267 269 271 272 273 274 275 276 278 280 283 285 287 289 291 292 293 294 294 294 294 295
239 242 245 247 250 252 251 248 249 253 258 262 263 263 262 263 264 265 265 266 268 270 272 273 274 276 277 278 279 281 283 285 288 290 292 293 294 294 293 292 292 292
240 244 247 250 254 258 259 255 253 257 265 269 268 266 265 265 266 267 267 268 269 271 272 274 276 277 278 278 279 280 282 285 289 291 292 292 292 292 291 291 291 292
244 247 249 252 254 259 264 261 255 255 265 273 271 267 265 266 266 266 267 268 270 271 273 274 276 276 276 277 279 281 284 287 289 290 290 290 289 289 290 290 290 289
Height
5802 5803 5803 5803 5803 5804 5804 5804 5804 5804 5804 5804 5803 5803 5803 5803 5803 5802 5802 5802 5802 5801 5801 5802 5802 5802 5802 5802 5802 5802 5802 5802 5803 5803 5803 5804 5803 5803 5802 5802 5801 5800
5799 5800 5801 5801 5801 5802 5802 5802 5802 5802 5802 5802 5802 5802 5801 5801 5800 5800 5800 5800 5801 5801 5800 5800 5800 5800 5800 5800 5799 5800 5800 5800 5800 5801 5801 5801 5801 5800 5800 5800 5799 5798
5797 5798 5799 5799 5799 5799 5800 5800 5800 5800 5800 5800 5800 5800 5799 5799 5798 5798 5798 5798 5799 5799 5799 5798 5798 5798 5798 5798 5798 5798 5798 5798 5798 5799 5799 5799 5799 5798 5798 5797 5797 5796
5795 5796 5796 5796 5797 5797 5798 5798 5798 5798 5798 5798 5798 5798 5797 5797 5796 5796 5796 5796 5797 5797 5797 5796 5796 5796 5796 5796 5796 5796 5796 5796 5796 5797 5797 5797 5796 5796 5796 5795 5795 5794
5792 5793 5794 5794 5795 5795 5796 5796 5796 5796 5795 5796 5796 5796 5795 5795 5794 5794 5794 5794 5794 5794 5794 5794 5794 5794 5794 5794 5794 5794 5794 5794 5794 5795 5795 5795 5794 5794 5794 5793 5792 5791
5790 5791 5792 5792 5792 5793 5793 5793 5794 5793 5793 5793 5794 5793 5793 5792 5792 5792 5792 5792 5792 5792 5792 5791 5791 5791 5791 5791 5791 5791 5791 5792 5792 5793 5793 5793 5792 5792 5791 5790 5790 5789
5788 5789 5789 5789 5790 5790 5790 5791 5791 5791 5791 5791 5791 5791 5790 5790 5790 5790 5789 5789 5790 5789 5789 5789 5789 5789 5789 5789 5789 5789 5789 5790 5790 5791 5791 5791 5790 5789 5789 5788 5787 5786
5785 5786 5787 5787 5787 5788 5788 5788 5789 5789 5789 5789 5788 5788 5788 5787 5787 5787 5787 5787 5787 5787 5787 5786 5786 5787 5787 5787 5787 5787 5788 5788 5789 5789 5789 5788 5787 5787 5786 5785 5785 5784
5783 5784 5784 5784 5785 5785 5785 5786 5786 5786 5786 5786 5786 5785 5785 5785 5785 5785 5785 5784 5784 5784 5784 5784 5784 5784 5785 5785 5785 5785 5786 5787 5787 5787 5786 5785 5785 5784 5783 5783 5782 5781
5780 5781 5781 5782 5783 5783 5783 5783 5784 5783 5783 5783 5783 5783 5783 5783 5783 5782 5782 5782 5782 5781 5781 5782 5782 5782 5783 5783 5783 5784 5784 5784 5784 5784 5783 5783 5782 5781 5781 5780 5779 5778
5778 5778 5779 5780 5780 5780 5780 5781 5781 5781 5780 5780 5781 5781 5780 5780 5780 5780 5779 5779 5779 5779 5779 5779 5780 5780 5780 5780 5781 5781 5782 5782 5781 5781 5780 5780 5779 5778 5778 5777 5776 5775
5775 5776 5776 5777 5778 5778 5778 5778 5778 5778 5778 5778 5778 5778 5778 5778 5778 5777 5777 5776 5776 5777 5777 5777 5778 5778 5778 5778 5778 5779 5779 5779 5778 5778 5777 5777 5776 5775 5774 5773 5772 5771
5772 5773 5773 5774 5775 5775 5775 5775 5775 5776 5776 5776 5776 5776 5776 5775 5775 5775 5774 5774 5774 5774 5775 5775 5775 5775 5775 5775 5776 5776 5776 5776 5775 5775 5774 5773 5772 5772 5771 5770 5768 5767
5769 5770 5771 5771 5772 5773 5773 5772 5773 5773 5773 5773 5773 5773 5773 5773 5773 5772 5772 5772 5772 5772 5772 5772 5772 5772 5772 5773 5773 5774 5774 5773 5772 5771 5771 5770 5769 5769 5768 5766 5764 5763
5765 5766 5768 5768 5769 5770 5770 5770 5770 5770 5770 5771 5771 5771 5770 5770 5770 5770 5770 5770 5769 5769 5770 5770 5770 5770 5770 5770 5771 5771 5770 5770 5769 5768 5767 5767 5766 5765 5764 5762 5760 5759
5762 5764 5765 5766 5766 5766 5767 5767 5767 5768 5768 5768 5768 5768 5768 5768 5768 5768 5768 5767 5767 5767 5767 5767 5767 5768 5767 5767 5767 5767 5767 5766 5765 5765 5764 5763 5763 5762 5760 5758 5756 5755
5759 5761 5762 5763 5763 5763 5764 5764 5765 5765 5765 5765 5766 5765 5765 5765 5766 5766 5765 5765 5765 5765 5765 5765 5765 5765 5764 5764 5764 5764 5763 5763 5762 5761 5760 5760 5759 5757 5756 5754 5752 5750
5757 5758 5759 5759 5760 5760 5761 5762 5762 5762 5762 5763 5763 5763 5763 5763 5763 5763 5763 5763 5763 5763 5762 5762 5762 5761 5761 5761 5761 5760 5760 5759 5758 5757 5757 5756 5754 5753 5751 5749 5747 5745
5754 5754 5755 5756 5757 5757 5758 5759 5760 5760 5760 5760 5760 5760 5760 5761 5761 5761 5760 5760 5760 5760 5760 5759 5759 5758 5758 5758 5757 5757 5756 5755 5754 5754 5753 5752 5750 5749 5747 5745 5743 5741
5750 5751 5752 5752 5753 5754 5755 5756 5757 5757 5757 5757 5758 5758 5758 5758 5758 5758 5758 5758 5758 5758 5757 5756 5756 5755 5755 5754 5754 5753 5753 5752 5751 5750 5750 5748 5747 5745 5743 5741 5739 5736
5747 5748 5748 5749 5750 5751 5752 5753 5754 5754 5754 5755 5755 5756 5756 5756 5756 5756 5755 5755 5755 5755 5754 5753 5753 5752 5752 5751 5750 5750 5749 5748 5747 5746 5745 5744 5743 5741 5739 5737 5735 5732
5744 5744 5745 5745 5746 5748 5749 5750 5751 5751 5752 5752 5753 5753 5753 5753 5753 5753 5752 5752 5751 5751 5751 5750 5750 5749 5748 5747 5746 5746 5745 5745 5744 5742 5741 5740 5738 5737 5735 5733 5731 5728
5740 5741 5741 5742 5743 5744 5745 5747 5747 5748 5749 5750 5750 5750 5750 5750 5749 5749 5749 5748 5748 5747 5747 5746 5746 5746 5745 5743 5742 5742 5742 5741 5740 5739 5737 5736 5734 5733 5731 5729 5727 5724
5736 5737 5738 5739 5740 5741 5742 5744 5744 5745 5746 5747 5747 5747 5746 5746 5746 5746 5745 5745 5744 5743 5743 5743 5742 5742 5741 5739 5739 5739 5738 5737 5736 5735 5733 5732 5731 5729 5727 5725 5723 5720
5733 5734 5735 5737 5738 5739 5739 5741 5742 5742 5743 5744 5744 5743 5743 5743 5742 5742 5742 5741 5740 5739 5739 5739 5739 5738 5737 5735 5735 5735 5734 5733 5732 5731 5729 5728 5726 5725 5723 5721 5718 5716
5729 5731 5733 5734 5734 5735 5735 5736 5738 5739 5740 5740 5740 5740 5739 5739 5738 5738 5737 5737 5736 5735 5735 5735 5735 5734 5733 5732 5731 5730 5730 5729 5728 5726 5725 5723 5722 5721 5719 5716 5714 5711